{"data":{"norad_id":60238,"epoch":"2026-09-22T20:30:22.529088Z","epoch_age_seconds":77725,"freshness":"FRESH","line1":"1 60238U 24128D   26265.85442742  .00003989  00000+0  23851-3 0  9993","line2":"2 60238  61.9869 220.5124 0024021 149.2040 211.0471 15.12617756121231","mean_motion":15.12617756,"eccentricity":0.0024021,"inclination_deg":61.9869,"raan_deg":220.5124,"arg_perigee_deg":149.204,"mean_anomaly_deg":211.0471,"bstar":0.00023851,"rev_number":12123,"period_min":95.199199816877,"perigee_km":511.63057823155,"apogee_km":544.81010016052,"semimajor_km":6906.357339196,"source":"CELESTRAK","updated_at":"2026-09-23T09:00:20.487082Z"}}